TimeEST,TemperatureF,Dew PointF,Humidity,Sea Level PressureIn,VisibilityMPH,Wind Direction,Wind SpeedMPH,Gust SpeedMPH,PrecipitationIn,Events,Conditions,WindDirDegrees,DateUTC
12:15 AM,32.0,19.4,60,30.03,10.0,WSW,13.8,-,N/A,,Clear,250,2014-01-02 05:15:00
12:16 AM,32.0,19.4,60,30.03,10.0,WSW,15.0,-,N/A,,Clear,250,2014-01-02 05:16:00
12:36 AM,32.0,19.4,60,30.03,10.0,WSW,15.0,-,N/A,,Clear,250,2014-01-02 05:36:00
12:55 AM,32.0,19.4,60,30.02,10.0,WSW,16.1,-,N/A,,Clear,250,2014-01-02 05:55:00
1:15 AM,32.0,19.4,60,30.02,10.0,WSW,15.0,-,N/A,,Clear,250,2014-01-02 06:15:00
1:36 AM,32.0,19.4,60,30.01,10.0,West,15.0,-,N/A,,Clear,260,2014-01-02 06:36:00
1:55 AM,32.0,19.4,60,30.01,10.0,West,13.8,-,N/A,,Clear,260,2014-01-02 06:55:00
2:16 AM,32.0,19.4,60,30.01,10.0,West,15.0,-,N/A,,Clear,260,2014-01-02 07:16:00
2:35 AM,32.0,19.4,60,30.00,10.0,West,13.8,-,N/A,,Clear,260,2014-01-02 07:35:00
2:55 AM,32.0,19.4,60,29.99,10.0,West,13.8,-,N/A,,Clear,260,2014-01-02 07:55:00
3:15 AM,33.8,17.6,52,29.98,10.0,West,12.7,-,N/A,,Clear,260,2014-01-02 08:15:00
3:35 AM,32.0,19.4,60,29.97,10.0,West,10.4,-,N/A,,Clear,260,2014-01-02 08:35:00
3:55 AM,33.8,17.6,52,29.95,10.0,WSW,11.5,-,N/A,,Clear,250,2014-01-02 08:55:00
4:15 AM,33.8,17.6,52,29.95,10.0,WSW,12.7,-,N/A,,Clear,250,2014-01-02 09:15:00
4:35 AM,33.8,17.6,52,29.94,10.0,WSW,11.5,-,N/A,,Clear,250,2014-01-02 09:35:00
4:55 AM,33.8,17.6,52,29.93,10.0,WSW,10.4,-,N/A,,Clear,240,2014-01-02 09:55:00
5:15 AM,33.8,15.8,48,29.92,10.0,WSW,11.5,-,N/A,,Clear,240,2014-01-02 10:15:00
5:35 AM,33.8,15.8,48,29.91,10.0,WSW,11.5,-,N/A,,Clear,250,2014-01-02 10:35:00
5:55 AM,33.8,15.8,48,29.91,10.0,WSW,12.7,-,N/A,,Clear,250,2014-01-02 10:55:00
6:15 AM,33.8,15.8,48,29.91,10.0,WSW,13.8,-,N/A,,Clear,250,2014-01-02 11:15:00
6:35 AM,33.8,15.8,48,29.91,10.0,West,13.8,-,N/A,,Clear,260,2014-01-02 11:35:00
6:55 AM,33.8,15.8,48,29.90,10.0,West,13.8,-,N/A,,Clear,260,2014-01-02 11:55:00
7:15 AM,33.8,15.8,48,29.90,10.0,West,13.8,-,N/A,,Clear,260,2014-01-02 12:15:00
7:35 AM,33.8,15.8,48,29.90,10.0,West,16.1,-,N/A,,Scattered Clouds,260,2014-01-02 12:35:00
7:55 AM,35.6,15.8,44,29.89,10.0,West,15.0,-,N/A,,Scattered Clouds,260,2014-01-02 12:55:00
8:35 AM,33.8,17.6,52,29.86,10.0,West,15.0,-,N/A,,Clear,260,2014-01-02 13:35:00
8:55 AM,35.6,17.6,48,29.86,10.0,West,15.0,19.6,N/A,,Clear,260,2014-01-02 13:55:00
9:15 AM,35.6,19.4,52,29.85,10.0,West,16.1,-,N/A,,Clear,270,2014-01-02 14:15:00
9:36 AM,35.6,23.0,60,29.83,10.0,WSW,8.1,-,N/A,,Clear,250,2014-01-02 14:36:00
9:56 AM,35.6,26.6,70,29.83,10.0,West,9.2,-,N/A,,Scattered Clouds,260,2014-01-02 14:56:00
10:15 AM,35.6,24.8,65,29.83,10.0,WSW,6.9,-,N/A,,Mostly Cloudy,240,2014-01-02 15:15:00
10:35 AM,35.6,26.6,70,29.82,10.0,SW,8.1,-,N/A,,Overcast,230,2014-01-02 15:35:00
10:55 AM,35.6,28.4,75,29.81,10.0,SW,9.2,-,N/A,,Overcast,230,2014-01-02 15:55:00
11:18 AM,37.4,28.4,70,29.78,10.0,SW,6.9,-,N/A,,Overcast,230,2014-01-02 16:18:00
11:35 AM,37.4,28.4,70,29.77,10.0,SW,8.1,-,N/A,,Overcast,230,2014-01-02 16:35:00
11:55 AM,37.4,28.4,70,29.76,10.0,SW,6.9,-,N/A,Rain,Rain,230,2014-01-02 16:55:00
12:15 PM,35.6,30.2,81,29.74,1.5,SW,6.9,-,N/A,Snow,Light Snow,220,2014-01-02 17:15:00
12:35 PM,33.8,32.0,93,29.72,2.5,South,6.9,-,N/A,Snow,Light Snow,190,2014-01-02 17:35:00
12:55 PM,33.8,33.8,100,29.71,5.0,SW,9.2,-,N/A,Rain,Light Rain,220,2014-01-02 17:55:00
1:15 PM,33.8,33.8,100,29.69,7.0,SW,8.1,-,N/A,Rain,Light Rain,220,2014-01-02 18:15:00
1:35 PM,33.8,33.8,100,29.67,10.0,SSW,5.8,-,0.01,Rain,Rain,200,2014-01-02 18:35:00
1:55 PM,35.6,33.8,93,29.66,5.0,SSW,9.2,-,0.01,Rain,Light Rain,200,2014-01-02 18:55:00
2:15 PM,35.6,35.6,100,29.63,10.0,SSW,9.2,-,0.03,Rain,Rain,210,2014-01-02 19:15:00
2:35 PM,35.6,35.6,100,29.62,10.0,SSW,10.4,17.3,0.04,Rain,Light Rain,200,2014-01-02 19:35:00
2:56 PM,35.6,35.6,100,29.61,10.0,SSW,9.2,-,N/A,Rain,Light Rain,200,2014-01-02 19:56:00
3:15 PM,35.6,35.6,100,29.60,10.0,SW,12.7,17.3,N/A,Rain,Light Rain,230,2014-01-02 20:15:00
3:35 PM,35.6,35.6,100,29.60,10.0,SW,10.4,16.1,N/A,,Overcast,220,2014-01-02 20:35:00
3:55 PM,35.6,35.6,100,29.60,10.0,SW,12.7,16.1,N/A,,Overcast,230,2014-01-02 20:55:00
4:15 PM,33.8,33.8,100,29.60,0.5,WSW,13.8,-,N/A,,Drizzle,240,2014-01-02 21:15:00
4:35 PM,33.8,33.8,100,29.60,0.2,West,10.4,-,N/A,Snow,Snow,260,2014-01-02 21:35:00
4:55 PM,30.2,30.2,100,29.60,0.2,West,9.2,-,N/A,Snow,Light Snow,260,2014-01-02 21:55:00
5:15 PM,32.0,32.0,100,29.57,0.2,West,12.7,-,N/A,Snow,Snow,270,2014-01-02 22:15:00
5:35 PM,32.0,32.0,100,29.58,0.2,West,13.8,19.6,N/A,Snow,Snow,260,2014-01-02 22:35:00
5:55 PM,32.0,32.0,100,29.58,0.2,West,16.1,-,N/A,Snow,Snow,280,2014-01-02 22:55:00
6:15 PM,30.2,30.2,100,29.59,0.2,West,15.0,19.6,N/A,Snow,Heavy Snow,280,2014-01-02 23:15:00
6:35 PM,30.2,30.2,100,29.58,0.2,West,17.3,24.2,N/A,Snow,Light Snow,280,2014-01-02 23:35:00
6:55 PM,30.2,30.2,100,29.57,1.2,West,19.6,25.3,N/A,,Overcast,280,2014-01-02 23:55:00
7:15 PM,30.2,30.2,100,29.57,0.2,West,18.4,25.3,N/A,Snow,Light Snow,280,2014-01-03 00:15:00
7:35 PM,28.4,28.4,100,29.56,0.5,West,18.4,26.5,N/A,Snow,Light Snow,280,2014-01-03 00:35:00
7:55 PM,28.4,28.4,100,29.56,0.5,West,18.4,25.3,N/A,Snow,Light Snow,280,2014-01-03 00:55:00
8:15 PM,28.4,28.4,100,29.55,1.0,West,17.3,26.5,N/A,,Overcast,280,2014-01-03 01:15:00
8:35 PM,26.6,26.6,100,29.56,4.0,WNW,13.8,21.9,N/A,,Overcast,290,2014-01-03 01:35:00
8:55 PM,26.6,26.6,100,29.55,10.0,WNW,17.3,31.1,N/A,,Overcast,290,2014-01-03 01:55:00
9:15 PM,24.8,24.8,100,29.55,10.0,WNW,23.0,29.9,N/A,,Overcast,290,2014-01-03 02:15:00
9:35 PM,24.8,24.8,100,29.54,10.0,WNW,20.7,31.1,N/A,,Overcast,290,2014-01-03 02:35:00
9:55 PM,24.8,24.8,100,29.55,10.0,WNW,23.0,31.1,N/A,,Overcast,290,2014-01-03 02:55:00
10:15 PM,23.0,21.2,93,29.56,10.0,West,24.2,34.5,N/A,,Overcast,280,2014-01-03 03:15:00
10:35 PM,21.2,19.4,93,29.56,10.0,WNW,23.0,38.0,N/A,,Overcast,290,2014-01-03 03:35:00
10:55 PM,19.4,15.8,86,29.56,10.0,WNW,29.9,41.4,N/A,,Overcast,290,2014-01-03 03:55:00
11:15 PM,17.6,14.0,86,29.58,10.0,WNW,25.3,38.0,N/A,,Overcast,300,2014-01-03 04:15:00
11:35 PM,15.8,12.2,86,29.59,10.0,WNW,31.1,40.3,N/A,,Overcast,290,2014-01-03 04:35:00
11:55 PM,14.0,10.4,86,29.57,10.0,WNW,36.8,46.0,N/A,,Mostly Cloudy,290,2014-01-03 04:55:00